sat.trackr.live / text

‹ back to catalog

STARLINK-35961

NORAD 66530 · 2025-265Q

PAYLOAD ACTIVE UNKNOWN

§ Identity

Operator
Country
US
Launch date
2025-11-19
Launch site
AFETR
Launch vehicle
Mass (kg)
RCS (m²)

Purposes: comms

External: N2YO · Heavens-Above · Gunter

§ Orbital elements

Epoch: 2026-09-20T16:25:19.403040Z

Period
94.27 min
Inclination
42.9993°
Eccentricity
0.0000621
Mean motion
15.27588672 rev/d
Perigee alt
482.6 km
Apogee alt
483.4 km
Semi-major
6,861.2 km
B*
3.7146e-4
RAAN
256.8547°
Arg perigee
284.4299°
Mean anomaly
75.6484°
Rev number
4,693

§ Raw data

STARLINK-359611 66530U 25265Q   26263.68425235  .00009976  00000+0  37146-3 0  99982 66530  42.9993 256.8547 0000621 284.4299  75.6484 15.27588672 46939

JSON: /api/v1/satellites/66530 · /tle

For live sub-satellite position, see the globe view (requires WebGL).

§ Visibility from observer

Set your observer location to see the next 7 days of passes ≥ 10°. The values pass through the URL so the page stays shareable.

No JS? Fill the form by hand. The geolocation button needs JavaScript.